Wind_Speed
44 45 45 46 47 48 49 50 51 52 53 54 55 56 57 57 57 58 58 57 56 56 56 56 57 57 56 54 53 52 52 52 51 49 48 48 48 47 45 45 44 43 40
46 46 47 47 48 49 50 51 52 53 54 55 56 56 57 57 56 56 56 55 55 54 55 55 55 55 54 52 52 51 51 51 50 48 46 45 44 43 41 41 40 39 37
47 47 48 49 50 51 52 53 54 55 56 56 56 55 56 55 55 54 54 54 54 54 54 54 53 52 52 51 51 50 48 47 46 46 43 42 41 39 38 37 36 35 34
48 48 49 50 51 52 53 54 55 55 55 55 54 54 54 53 53 53 53 53 53 53 52 52 51 51 51 50 49 47 46 44 43 42 40 38 37 36 36 34 31 30 29
48 49 49 50 51 52 54 54 54 54 54 54 53 53 52 52 53 53 52 52 51 51 51 50 50 50 49 48 46 44 42 40 39 38 36 35 34 34 33 30 27 26 25
48 49 50 51 52 53 53 53 53 53 53 54 53 52 52 52 52 51 51 50 50 50 49 49 48 48 46 44 42 40 38 37 36 34 33 32 32 31 29 27 26 23 21
49 49 50 51 51 52 52 52 53 53 53 53 52 51 50 51 50 50 50 49 49 48 48 48 47 45 43 40 38 36 35 35 34 33 31 31 29 28 26 23 22 19 17
49 49 50 50 51 51 51 52 52 52 52 51 49 49 50 50 49 49 49 48 48 47 46 45 43 40 38 37 35 33 32 32 32 31 30 28 25 23 22 21 19 17 15
48 49 49 50 50 50 51 51 50 50 50 49 48 49 49 48 48 47 47 46 45 44 43 41 38 36 34 33 32 30 30 29 28 27 26 24 22 21 21 19 17 15 13
47 48 48 49 49 49 49 48 48 48 48 47 47 47 47 46 46 45 45 44 42 41 39 37 34 32 31 30 28 28 27 25 24 23 22 21 20 19 18 16 14 12 11
46 46 47 47 47 47 47 47 46 46 45 44 44 44 44 44 44 43 42 40 39 38 36 34 32 30 30 29 27 26 24 22 21 21 20 18 17 16 15 13 11 10 9
44 45 45 45 45 45 45 45 45 44 43 43 43 43 42 42 41 40 39 37 36 35 34 32 31 30 29 27 24 22 21 19 19 18 17 16 15 14 13 11 10 9 9
43 44 44 45 45 45 45 45 44 43 42 42 42 41 40 39 38 37 36 35 34 33 33 31 30 28 26 24 22 20 18 18 17 16 15 14 13 12 11 10 8 7 7
43 44 44 45 45 45 45 44 44 43 42 41 40 39 37 36 35 35 35 34 33 33 32 30 28 26 24 21 20 18 17 17 16 15 14 13 11 10 9 9 8 7 8
43 43 43 44 44 44 44 43 42 41 40 39 38 37 36 35 34 34 34 33 33 32 30 28 26 23 20 18 17 16 16 15 14 13 13 11 10 9 9 8 8 8 9
42 42 42 42 42 42 40 39 38 38 37 37 36 35 35 34 34 33 32 31 30 29 26 24 21 19 18 16 16 16 15 14 13 12 11 10 10 9 9 8 8 9 9
41 41 41 40 40 39 37 36 36 36 36 36 35 34 33 32 32 31 30 28 27 24 22 21 19 18 17 16 15 15 14 13 12 11 10 10 10 9 9 8 9 9 8
39 39 39 39 38 37 36 35 34 34 34 34 33 31 30 30 30 29 27 26 24 22 21 19 18 17 17 16 15 14 13 12 11 10 10 10 9 9 8 8 7 7 7
38 38 37 37 36 35 34 33 33 33 32 32 30 29 28 28 26 25 24 23 21 20 19 17 16 15 15 14 13 13 12 11 10 10 10 9 9 8 8 7 7 6 6
37 37 36 35 34 33 33 32 32 31 31 30 29 28 26 25 23 22 21 19 18 16 15 15 14 14 13 13 12 11 11 10 10 10 9 8 8 7 8 7 7 6 6
35 34 33 33 32 31 31 30 29 28 27 26 25 24 22 21 20 19 17 15 14 13 13 12 13 12 12 12 11 11 10 10 10 9 8 8 8 7 7 6 6 5 5
32 31 30 30 29 29 28 27 26 25 24 23 21 20 18 16 15 14 13 12 11 11 10 10 11 11 12 12 12 11 11 10 10 8 8 8 9 8 7 6 5 5 4
28 27 26 26 25 25 24 23 23 22 21 19 18 16 14 12 11 10 10 9 9 9 8 9 10 11 11 11 11 11 11 10 9 9 9 9 9 8 7 6 5 5 5
24 23 23 22 22 21 20 19 18 18 17 15 14 12 11 10 9 8 8 8 8 8 8 9 9 10 10 11 11 11 11 10 10 10 9 9 9 8 7 6 6 6 6
22 21 21 20 19 18 17 16 16 15 14 12 11 10 10 10 9 8 8 8 8 8 9 9 10 10 11 11 12 11 10 10 10 10 10 9 8 8 8 8 7 8 7
20 19 18 18 17 16 15 14 13 12 12 11 10 10 10 9 9 8 8 8 9 9 9 10 10 10 11 11 12 11 10 10 11 10 10 9 9 10 9 9 8 8 8
Wind_Direction
273 275 276 277 278 280 281 283 284 287 289 290 290 291 291 291 292 293 293 293 293 294 294 295 296 296 296 296 297 297 296 296 296 296 294 293 294 294 294 294 293 292 290
274 274 275 277 279 280 282 284 285 287 288 290 291 291 291 291 292 293 293 293 294 295 296 296 296 296 296 295 296 296 296 296 296 297 296 295 295 295 295 295 295 293 290
274 275 276 278 279 281 283 285 286 287 289 290 291 291 291 291 292 293 294 294 295 296 296 296 297 296 296 296 296 295 296 296 297 298 298 296 295 294 296 297 296 294 291
274 275 276 278 280 282 283 285 287 288 289 290 291 291 291 292 293 293 295 296 297 297 297 297 297 296 297 297 296 295 295 296 297 298 298 297 295 294 296 298 297 295 291
274 275 276 278 280 282 284 285 287 288 288 289 290 291 291 292 293 294 295 296 297 297 297 297 297 296 297 297 296 294 294 294 296 298 298 296 294 293 295 298 298 297 291
274 274 276 278 280 282 284 286 287 288 288 289 289 290 290 292 293 293 294 295 297 298 297 297 296 296 296 297 296 294 293 293 295 296 297 296 296 295 295 296 297 295 290
273 274 276 278 281 282 284 286 287 288 289 288 288 289 290 292 293 293 294 296 297 297 297 297 296 295 294 295 294 293 292 293 294 295 296 298 297 294 293 295 297 294 290
274 275 277 279 281 283 285 287 287 288 288 288 288 289 290 292 292 292 293 295 296 297 297 296 295 293 293 293 292 291 291 292 292 293 295 296 295 293 293 293 294 291 291
274 276 278 279 282 284 286 287 288 288 288 287 287 289 290 291 292 292 293 294 295 296 296 295 293 292 292 293 292 291 291 292 292 292 292 292 290 291 292 291 289 286 284
274 276 278 281 283 284 286 287 288 288 287 287 288 289 290 291 292 293 293 293 293 294 294 294 292 292 292 294 292 291 291 291 291 291 290 289 288 289 289 287 285 282 275
275 277 279 281 283 284 286 287 287 287 287 287 289 290 291 291 291 292 293 292 292 292 292 292 291 290 291 291 291 291 290 288 288 289 287 288 286 284 283 281 278 272 264
275 277 279 281 282 284 286 286 286 286 286 287 289 290 291 292 291 291 292 291 292 292 292 291 290 289 289 288 287 286 286 286 285 287 287 286 281 278 276 271 264 259 254
275 277 280 281 283 284 286 286 286 285 286 287 289 290 290 290 290 290 290 290 289 291 292 290 289 287 287 286 283 281 280 280 279 281 282 280 279 276 269 261 252 250 252
277 278 280 282 283 284 284 285 285 285 285 286 288 288 288 288 288 288 288 287 287 289 290 289 287 285 283 280 278 275 275 275 275 277 276 271 269 264 255 255 247 245 242
278 280 281 282 283 284 284 283 283 284 283 285 286 286 286 287 288 288 287 286 286 287 287 286 284 282 278 275 273 271 270 270 271 272 271 263 257 249 248 251 247 242 237
278 280 281 283 284 284 283 282 282 284 284 284 285 285 285 286 287 287 287 286 286 285 283 283 280 275 270 268 268 268 267 265 264 265 264 254 246 243 245 245 243 239 240
278 280 281 282 283 283 281 280 281 283 284 284 285 285 285 285 286 286 286 285 284 283 280 278 274 269 265 264 264 263 261 258 256 258 254 244 237 236 237 239 238 238 242
279 280 281 282 282 282 281 280 280 281 283 285 284 284 285 285 286 285 284 284 282 279 276 272 266 263 260 258 257 254 252 249 248 248 240 231 230 231 232 234 231 234 239
279 280 281 282 282 282 280 279 281 282 283 283 282 282 283 284 285 284 282 282 279 276 271 265 259 255 251 248 245 243 240 238 235 229 225 222 222 222 222 224 227 231 236
281 281 281 280 280 280 279 279 280 280 281 281 280 279 280 279 281 281 281 279 275 270 264 259 252 246 241 236 231 228 225 222 217 216 216 216 218 219 220 223 227 231 235
282 281 280 279 278 279 278 278 278 278 278 280 278 277 276 275 277 278 277 273 269 263 258 253 245 236 231 225 219 216 213 208 206 207 210 214 212 213 218 223 225 226 223
282 280 279 278 278 278 277 276 275 276 277 277 276 274 272 272 272 270 269 267 263 258 252 243 231 224 220 215 212 207 203 202 203 207 210 212 211 212 214 215 210 205 201
280 278 277 277 278 278 275 273 273 275 274 272 271 268 264 265 265 261 259 255 251 246 235 224 216 210 208 208 203 198 195 195 198 203 204 202 203 206 207 201 191 182 174
277 275 274 275 277 277 274 271 270 270 268 266 263 258 254 252 251 251 251 245 239 235 225 214 205 201 198 197 194 192 191 192 193 194 193 192 194 195 188 178 169 161 156
275 273 273 274 275 273 270 266 264 262 259 256 252 246 243 242 242 242 241 235 227 220 211 201 199 197 194 193 189 188 187 186 184 181 178 178 178 176 171 164 156 152 149
271 272 272 271 271 268 263 259 255 252 249 245 241 237 236 234 232 229 226 221 211 202 195 189 187 186 183 181 180 179 176 172 170 169 169 169 167 164 160 154 148 146 144
Height
5675 5674 5672 5671 5670 5668 5666 5664 5662 5659 5656 5652 5648 5644 5639 5635 5630 5626 5621 5616 5612 5608 5604 5599 5595 5590 5585 5580 5575 5570 5566 5560 5557 5557 5553 5549 5545 5541 5537 5533 5529 5526 5523
5664 5662 5661 5660 5658 5657 5654 5652 5649 5646 5643 5639 5634 5630 5626 5621 5617 5612 5608 5604 5599 5595 5591 5586 5581 5576 5572 5567 5563 5558 5554 5549 5545 5543 5541 5537 5534 5530 5526 5523 5519 5516 5514
5652 5651 5650 5648 5647 5644 5642 5639 5636 5633 5629 5625 5621 5616 5612 5608 5604 5600 5595 5591 5587 5582 5578 5573 5568 5563 5559 5555 5551 5546 5542 5538 5534 5531 5529 5526 5523 5520 5516 5514 5511 5508 5506
5640 5639 5638 5636 5634 5632 5629 5626 5623 5619 5615 5611 5607 5603 5599 5595 5591 5587 5583 5579 5574 5570 5565 5560 5555 5551 5546 5542 5539 5535 5531 5528 5525 5521 5519 5517 5514 5511 5508 5506 5504 5501 5499
5628 5627 5625 5624 5621 5619 5616 5613 5609 5606 5602 5598 5594 5590 5586 5582 5578 5574 5571 5566 5562 5558 5553 5548 5543 5538 5534 5530 5527 5524 5521 5518 5515 5512 5511 5509 5506 5504 5501 5499 5497 5496 5494
5616 5614 5613 5611 5609 5606 5603 5600 5596 5592 5589 5585 5581 5578 5574 5570 5566 5562 5558 5554 5550 5546 5541 5536 5532 5527 5523 5520 5517 5514 5511 5509 5507 5505 5503 5501 5499 5497 5495 5493 5492 5490 5489
5603 5602 5600 5598 5595 5592 5590 5587 5583 5579 5576 5572 5568 5565 5562 5558 5554 5550 5546 5542 5538 5533 5529 5525 5520 5517 5513 5510 5508 5506 5503 5501 5499 5497 5496 5494 5492 5491 5489 5489 5487 5485 5485
5590 5588 5587 5585 5582 5579 5577 5573 5570 5566 5563 5559 5556 5553 5550 5546 5542 5538 5534 5530 5526 5522 5517 5513 5510 5507 5504 5501 5499 5498 5496 5494 5492 5490 5489 5488 5486 5485 5484 5483 5482 5482 5482
5577 5576 5574 5571 5569 5566 5564 5560 5557 5554 5550 5547 5544 5541 5538 5534 5530 5526 5522 5519 5515 5511 5507 5503 5500 5498 5496 5493 5492 5490 5490 5488 5486 5484 5483 5482 5481 5480 5479 5479 5479 5479 5479
5564 5563 5561 5558 5556 5553 5551 5548 5544 5541 5538 5535 5532 5529 5526 5522 5518 5514 5510 5507 5505 5502 5498 5495 5492 5490 5488 5486 5484 5483 5483 5482 5480 5479 5478 5477 5477 5476 5476 5476 5476 5476 5476
5551 5550 5548 5546 5543 5541 5538 5535 5532 5529 5527 5524 5522 5518 5515 5511 5508 5504 5500 5497 5494 5492 5490 5487 5485 5483 5481 5479 5478 5477 5476 5476 5475 5474 5474 5474 5473 5473 5473 5473 5473 5473 5474
5539 5538 5536 5534 5531 5529 5526 5524 5521 5518 5516 5513 5511 5508 5504 5501 5497 5494 5491 5487 5485 5483 5481 5479 5477 5475 5474 5472 5472 5471 5471 5471 5471 5470 5470 5470 5470 5470 5470 5470 5471 5472 5473
5527 5526 5524 5522 5519 5516 5514 5512 5509 5507 5505 5502 5500 5497 5494 5491 5488 5485 5482 5479 5477 5475 5473 5471 5470 5468 5467 5466 5466 5466 5466 5466 5466 5466 5466 5467 5467 5467 5468 5468 5469 5470 5471
5515 5514 5512 5510 5507 5505 5502 5500 5498 5496 5494 5491 5489 5487 5485 5482 5479 5476 5473 5471 5469 5467 5465 5464 5463 5462 5461 5461 5461 5461 5462 5462 5462 5463 5463 5463 5464 5464 5465 5466 5468 5469 5470
5503 5502 5500 5497 5495 5493 5490 5488 5486 5484 5482 5480 5479 5476 5475 5473 5470 5467 5464 5462 5461 5459 5458 5457 5456 5456 5456 5456 5456 5457 5457 5458 5458 5459 5460 5460 5461 5462 5464 5465 5466 5467 5468
5491 5490 5488 5486 5483 5481 5479 5478 5475 5474 5471 5469 5468 5466 5464 5463 5460 5458 5456 5454 5452 5451 5450 5450 5450 5450 5450 5451 5452 5453 5453 5454 5454 5455 5457 5458 5459 5460 5462 5463 5464 5465 5466
5479 5478 5476 5474 5472 5470 5468 5467 5466 5464 5462 5460 5458 5456 5455 5453 5451 5449 5448 5446 5445 5444 5444 5444 5444 5445 5445 5446 5447 5448 5449 5450 5451 5452 5454 5455 5457 5458 5459 5461 5462 5463 5464
5467 5466 5464 5463 5461 5459 5458 5457 5456 5455 5453 5451 5449 5447 5446 5444 5443 5441 5440 5439 5439 5438 5437 5438 5438 5439 5440 5442 5443 5444 5445 5446 5448 5449 5451 5453 5455 5456 5458 5459 5460 5461 5463
5456 5455 5453 5452 5450 5449 5448 5447 5446 5445 5444 5442 5441 5439 5438 5437 5435 5434 5433 5432 5432 5432 5432 5432 5433 5434 5435 5437 5439 5440 5442 5443 5445 5447 5449 5451 5453 5454 5456 5457 5458 5460 5461
5445 5444 5442 5441 5440 5439 5438 5437 5436 5435 5434 5433 5433 5432 5430 5430 5429 5428 5427 5426 5426 5426 5426 5427 5428 5429 5431 5433 5435 5437 5439 5441 5443 5445 5447 5449 5451 5452 5454 5455 5457 5458 5460
5434 5433 5431 5431 5430 5429 5428 5428 5427 5426 5426 5425 5424 5424 5423 5423 5423 5423 5422 5421 5421 5422 5422 5423 5424 5426 5428 5430 5432 5435 5437 5439 5441 5443 5445 5447 5449 5451 5452 5454 5456 5457 5458
5424 5423 5422 5421 5421 5420 5419 5419 5419 5418 5418 5418 5417 5417 5417 5417 5417 5417 5417 5418 5418 5418 5419 5420 5421 5423 5426 5428 5431 5433 5435 5438 5440 5442 5444 5446 5448 5450 5451 5453 5455 5456 5457
5415 5414 5414 5413 5412 5412 5411 5411 5411 5411 5411 5411 5412 5412 5412 5413 5413 5414 5414 5415 5415 5416 5417 5418 5420 5422 5424 5426 5429 5432 5434 5437 5439 5441 5443 5445 5447 5449 5451 5453 5454 5456 5457
5406 5406 5406 5405 5405 5404 5404 5404 5404 5405 5405 5406 5407 5407 5408 5409 5410 5411 5411 5412 5413 5414 5415 5416 5419 5421 5423 5426 5428 5431 5433 5436 5438 5440 5443 5445 5447 5449 5451 5453 5454 5456 5457
5399 5398 5398 5398 5398 5398 5398 5398 5399 5399 5400 5401 5402 5403 5404 5406 5407 5408 5409 5410 5411 5412 5414 5416 5418 5420 5422 5425 5428 5430 5432 5435 5437 5440 5442 5445 5447 5449 5451 5453 5455 5456 5458
5391 5392 5392 5391 5392 5392 5392 5393 5394 5395 5396 5397 5399 5400 5401 5403 5405 5406 5407 5409 5410 5411 5413 5415 5417 5420 5422 5425 5427 5430 5432 5435 5437 5440 5443 5445 5448 5450 5452 5454 5456 5457 5459